Regional Weather Roundup
Issued by NWS

Home | Current Version | Previous Version | Text Only | Print | Product List | Glossary On
Versions: 1 2 3 4 5 6 7 8 9 10 11 12 13 14 15 16 17 18 19 20 21 22 23 24 25 26 27 28 29 30 31 32 33 34 35 36 37 38 39 40 41 42 43 44 45 46 47 48 49 50
000
ASHW40 PHFO 281330
RWRHI

WEATHER ROUNDUP FOR HAWAII
NATIONAL WEATHER SERVICE HONOLULU HI
300 AM HST TUE JUL 28 2015

THIS IS AN AUTOMATED REPORT THAT HAS NOT BEEN QUALITY CONTROLLED.

NOTE..."FAIR" INDICATES FEW OR NO CLOUDS BELOW 12,000 FEET WITH NO
SIGNIFICANT WEATHER AND/OR OBSTRUCTIONS TO VISIBILITY.

* - THESE SITES REPORT LIMITED FIELDS

HIZ001>004-281400-
KAUAI-NIIHAU-

CITY           SKY/WX    TMP DP  RH WIND       PRES   REMARKS
LIHUE APT      PTCLDY    79  72  79 E10       29.94F
PORT ALLEN*    NOT AVBL
POIPU*           N/A     79 N/A N/A NE7G15      N/A
PRINCEVILLE*     N/A     75 N/A N/A MISG        N/A
KOKOLE POINT*  NOT AVBL
MOLOAA DAIRY*  NOT AVBL
WAIMEA HTS*    NOT AVBL
PUU OPAE*      NOT AVBL
PUU LUA*       NOT AVBL
MAKAHA RIDGE*    N/A     70  66  88 CALM        N/A
$$

HIZ005>011-281400-
OAHU-

CITY           SKY/WX    TMP DP  RH WIND       PRES   REMARKS
HONOLULU       PTCLDY    79  72  79 E10       29.92F
KALAELOA       CLEAR     76  69  79 CALM      29.93F
KANEOHE MCB    PTCLDY    79  72  79 VRB5      29.90F
WHEELER FIELD  FAIR      73  70  91 W2        29.93F
BELLOWS*         N/A    N/A N/A N/A E14         N/A
KAHUKU*          N/A    N/A N/A N/A E8          N/A
WHEELER*       NOT AVBL
WAIANAE HARBOR NOT AVBL
DILLINGHAM*      N/A     70  66  88 MISG        N/A
KAHUKU TRN*      N/A     75  72  88 E8G17       N/A
KAWAILOA*        N/A     73  68  83 E3G15       N/A
KII*             N/A     79  73  83 E13G18      N/A
MAKUA RANGE*     N/A     75  68  78 E5          N/A
OAHU FOREST NW NOT AVBL
SCHOFIELD BRK*   N/A     70  66  88 CALM        N/A
SCHOFIELD S*   NOT AVBL
WAIANAE VLY*   NOT AVBL
KUAOKALA*      NOT AVBL
HONOULIUULI*   NOT AVBL
MOKUOLOE IS*     N/A    N/A N/A N/A MISG        N/A
PALEHUA*       NOT AVBL
WAIAWA PHB*    NOT AVBL
$$

HIZ012>013-281400-
MOLOKAI-

CITY           SKY/WX    TMP DP  RH WIND       PRES   REMARKS
MOLOKAI AIRPT  CLEAR     74  67  78 CALM      29.93F
KALAUPAPA      NOT AVBL
MAKAPULAPAI*   NOT AVBL
MOLOKAI 1*     NOT AVBL
PUU ALII*        N/A     62  62  99 CALM        N/A
$$

HIZ016-281400-
KAHOOLAWE-

CITY           SKY/WX    TMP DP  RH WIND       PRES   REMARKS
KAHOOLAWE*     NOT AVBL
HAKIOAWA*        N/A     73  69  86 MISG      30.36R
HONOKANAIA*      N/A     79  70  74 NE16G26   29.94S
KANELOA*         N/A     77  72  83 E20G31    29.99F
KEALIALALO*      N/A     75  70  83 E13G30    29.91F
LUA MAKIKA*    NOT AVBL
$$

HIZ014>015-281400-
LANAI-

CITY           SKY/WX    TMP DP  RH WIND       PRES   REMARKS
LANAI CITY     MOCLDY    70  68  94 E3        29.99S
LANAI 1*       NOT AVBL
$$

HIZ017>028-281400-
MAUI-

CITY           SKY/WX    TMP DP  RH WIND       PRES   REMARKS
KAHULUI        PTCLDY    74  67  78 CALM      29.92S
KAPALUA-W MAUI NOT AVBL
HANA AIRPORT   CLEAR     75  72  88 SE5       29.97S
HANA*            N/A     77 N/A N/A SE6G13      N/A
HALEAKALA SUMM   N/A     45  28  53 SE2G15      N/A
MAALAEA BAY*   NOT AVBL
HALEAKALA*     NOT AVBL
KAUPO GAP*     NOT AVBL
KULA 1*          N/A     53  45  75 E7          N/A
$$

HIZ023>026-281400-
BIG ISLAND OF HAWAII COAST AND LOWER SLOPES-

CITY           SKY/WX    TMP DP  RH WIND       PRES   REMARKS
KAILUA KONA    PTCLDY    80  71  74 SE5       29.89F
HILO           CLOUDY    73  68  84 SW7       29.96F
HONOKAA*       NOT AVBL
KAWAIHAE MWT*    N/A     81 N/A N/A E6          N/A
KAWAIHAE*        N/A     81 N/A N/A VRB1        N/A
SOUTH POINT*     N/A     73 N/A N/A NE14G20     N/A
UPOLU AIRPORT*   N/A    N/A N/A N/A NE16G25     N/A
KAMUELA*       CLOUDY    63  61  94 CALM      30.03S
HAKALAU*         N/A     52  33  49 SW8         N/A
KALOKO-HONOKO*   N/A     79  68  69 NE3       29.88F
PALI 2*          N/A     66  61  82 N7G14       N/A
KEALAKOMO*       N/A     75  72  88 NE5G15      N/A
KAUPULEHU*     NOT AVBL
KAPAPALA*        N/A     64  59  85 VRB5        N/A
LOWER KAHUKU*    N/A     63  59  88 N3G13       N/A
PUHE CS*         N/A     79  70  73 E3          N/A
PUHO CS*         N/A     75  65  71 E3          N/A
PTA KEAMUKU*     N/A     63  59  88 CALM        N/A
WAIKOLOA*      NOT AVBL
$$

HIZ027>028-281400-
BIG ISLAND OF HAWAII INTERIOR AND SUMMMITS-

CITY           SKY/WX    TMP DP  RH WIND       PRES   REMARKS
BRADSHAW FIELD CLOUDY    55  35  46 SE7       30.27F
MK VISITOR CEN NOT AVBL
MAUNA KEA*       N/A     41  -2  16 CALM        N/A
MAUNA LOA*       N/A    N/A N/A N/A MISG        N/A
MAUNA LOA 1*   NOT AVBL
PTA KIPUKA*      N/A     54  52  94 SE3         N/A
PTA RANGE 17*    N/A     57  37  47 SE10G18     N/A
PTA WEST*        N/A     57  48  72 E8G16       N/A
NENE CABIN*      N/A    N/A N/A N/A N5          N/A
AHUMOA*        NOT AVBL
PTA PORTABLE*  NOT AVBL
PUU MALI*        N/A     55  48  76 S6          N/A
$$

HIC003-281400-
NORTHWEST ISLANDS-

CITY           SKY/WX    TMP DP  RH WIND       PRES   REMARKS
MIDWAY ISLAND  MOCLDY    79  70  73 E12       30.05F
MIDWAY NOS*    NOT AVBL
FRENCH FRIGATE NOT AVBL
$$

PHZ110>124-180-281400-
BUOY REPORTS

STATION/POSITION TIME  TEMP    WIND        PRES    WAVE   SWELL
                       AIR SEA DIR/SP/G            HT/PER HT/DIR
                 (UTC) (F)     (DEG/KT/KT) (MB)    (FT/S) (FT/D)
BUOY 51001       NOT AVBL
BUOY 51101       1300   80 81  110/ 14/ 17 1013.2F   6/14   5/160
BUOY 51100       NOT AVBL
BUOY 51002       1300   79 82  100/ 17/ 21 1010.6F   8/14   5/170
BUOY 51003       1300   81 83  100/  8/ 10 1012.4F   6/14   5
BUOY 51004       1228   81 81  100/ 19/ 23 1012.5F   8/14   5/170
BARBERS PT BUOY  NOT AVBL
WAIMEA BAY BUOY  1300      81                N/A     3/ 8   2/260
KAILUA BAY BUOY  1300      80                N/A     5/ 8   2/150
LANAI BUOY       NOT AVBL
BARBERS PT 2     1300      82                N/A     5/14   3/190
PAUWELA MAUI     1300      80                N/A     5/ 7
HILO             NOT AVBL
KANEOHE BAY BUOY 1300      80                N/A     4/ 8
HANALEI KAUAI    1300      81                N/A     4/ 8   2/ 80
KAHULUI HARBOR   1300   77 82  330/ 11/ 14 1012.9S
HONOLULU HARBOR  1300   80 82   50/  2/  5 1013.3F
KILO NALU        NOT AVBL
HILO HARBOR      1300   73 77  190/  6/  7 1014.0F
MOKUOLOE         1300      84              1013.6F
NAWILIWILI       1300   80 83   60/  9/ 11 1013.5F
WHOTS BUOY       NOT AVBL
BUOY 51028       NOT AVBL
$$

......................KEY........................................
  SKY/WX - SKY CONDITIONS/PRESENT WEATHER
  TMP    - TEMPERATURE IN FAHRENHEIT
  DWPT   - DEWPOINT IN FAHRENHEIT
  RH     - RELATIVE HUMIDITY IN PERCENT
  WIND   - DIRECTION AND SPEED /MPH FOR ISLANDS...KTS FOR BUOYS/
  PRES   - MEAN SEA LEVEL PRESSURE IN INCHES OF HG
  VSB    - VISIBILITY IN MILES
  HX     - HEAT INDEX
  WCI    - WIND CHILL INDEX
  VRB    - VARIABLE WIND DIRECTION
  N/A    - NOT AVAILABLE


USA.gov is the U.S. government's official web portal to all federal, state and local government web resources and services.